SCP
0 0 0 0 0 0 0 0 0 0 0 0 0 0 0 0 0 0 0 0 0 0 0 0 0 0 0 0 0 0 0 0 0 0 0 0 0 0
0 0 0 0 0 0 0 0 0 0 0 0 0 0 0 0 0 0 0 0 0 0 0 0 0 0 0 0 0 0 0 0 0 0 0 0 0 0
0 0 0 0 0 0 0 0 0 0 0 0 0 0 0 0 0 0 0 0 0 0 0 0 0 0 0 0 0 0 0 0 0 0 0 0 0 0
0 0 0 0 0 0 0 0 0 0 0 0 0 0 0 0 0 0 0 0 0 0 0 0 0 0 0 0 0 0 0 0 0 0 0 0 0 0
0 0 0 0 0 0 0 0 0 0 0 0 0 0 0 0 0 0 0 0 0 0 0 0 0 0 0 0 0 0 0 0 0 0 0 0 0 0
0 0 0 0 0 0 0 0 0 0 0 0 0 0 0 0 0 0 0 0 0 0 0 0 0 0 0 0 0 0 0 0 0 0 0 0 0 0
0 0 0 0 0 0 0 0 0 0 0 0 0 0 0 0 0 0 0 0 0 0 0 0 0 0 0 0 0 0 0 0 0 0 0 0 0 0
1 1 0 0 0 0 0 0 0 0 0 0 0 0 0 0 0 0 0 0 0 0 0 0 0 0 0 0 0 0 0 0 0 0 0 0 0 0
1 1 1 1 0 0 0 0 0 0 0 0 0 0 0 0 0 0 0 0 0 0 0 0 0 0 0 0 0 0 0 0 0 0 0 0 0 0
2 1 1 1 1 0 0 0 0 0 0 0 0 0 0 0 0 0 0 0 0 0 0 0 0 0 0 0 0 0 0 0 0 0 0 0 0 0
2 2 2 1 1 0 0 0 0 0 0 0 0 0 0 0 0 0 0 0 0 0 0 0 0 0 0 0 0 0 0 0 0 0 0 0 0 0
3 3 1 2 2 0 1 1 0 0 0 0 0 0 0 0 0 0 0 0 0 0 0 0 0 0 0 0 0 0 0 0 0 0 0 0 0 0
2 2 3 0 0 0 0 1 1 1 0 0 0 0 0 0 0 0 0 0 0 0 0 0 0 0 0 0 0 0 0 0 0 0 0 0 0 0
0 0 0 0 0 0 0 0 1 0 0 0 0 0 0 0 0 0 0 0 0 0 0 0 0 0 0 0 0 0 0 0 0 0 0 0 0 0
0 0 0 -0 -0 0 0 0 0 0 0 0 0 0 0 0 0 0 0 0 0 0 0 0 0 0 0 0 0 0 0 0 0 0 0 0 0 0
0 0 0 0 0 0 0 0 0 0 0 0 0 0 0 0 0 0 0 0 0 0 0 0 0 0 0 0 0 0 0 0 0 0 0 0 0 0
0 0 0 0 0 0 0 0 0 0 0 0 0 0 0 0 0 0 0 0 0 0 0 0 0 0 0 0 0 0 0 0 0 0 0 0 0 0
0 0 0 0 0 0 0 0 0 0 0 0 0 0 0 0 0 0 0 0 0 0 0 0 0 0 0 0 0 0 0 0 0 0 0 0 0 0
0 0 0 0 0 0 0 0 0 0 0 0 0 0 0 0 0 0 0 0 0 0 0 0 0 0 0 0 0 0 0 0 0 0 0 0 0 0
0 0 0 0 0 0 0 0 0 0 0 0 0 0 0 0 0 0 0 0 0 0 0 0 0 0 0 0 0 0 0 0 0 0 0 0 0 0
0 0 0 0 0 0 0 0 0 0 0 0 0 0 0 0 0 0 0 0 0 0 0 0 0 0 0 0 0 0 0 0 0 0 0 0 0 0
0 0 0 0 0 0 0 0 0 0 0 0 0 0 0 0 0 0 0 0 0 0 0 0 0 0 0 0 0 0 0 0 0 0 0 0 0 0
0 0 0 0 0 0 0 0 0 0 0 0 0 0 0 0 0 0 0 0 0 0 0 0 0 0 0 0 0 0 0 0 0 0 0 0 0 0
Wind_Speed_500mb
106 102 102 103 110 105 99 95 85 75 82 81 76 69 63 61 60 61 63 63 71 76 71 71 71 72 65 51 44 40 37 30 28 27 26 24 26 24
115 109 107 106 104 107 113 106 99 95 99 83 79 78 72 69 69 69 72 66 70 78 79 77 75 76 70 58 55 50 41 32 25 30 27 27 27 24
122 120 114 109 108 106 107 110 110 105 105 100 96 86 79 76 75 73 78 75 72 79 85 83 81 80 76 71 64 60 45 33 41 29 29 27 29 25
130 127 124 117 114 110 108 113 113 111 106 108 103 100 96 86 85 80 81 79 77 81 85 87 87 84 85 81 77 48 46 50 40 29 31 32 29 26
125 134 131 124 120 117 117 114 114 118 113 106 108 104 101 93 92 87 83 81 79 76 84 89 88 90 89 85 68 54 59 54 39 31 33 35 31 27
123 129 132 133 126 121 118 116 114 116 120 117 106 105 103 98 91 90 88 86 76 77 81 87 89 92 92 78 65 60 66 54 45 36 37 37 33 32
121 124 127 129 127 124 117 114 112 113 115 115 116 116 114 108 109 100 90 81 77 78 80 88 92 94 89 79 61 67 66 62 53 41 42 41 39 37
116 120 121 122 120 119 119 110 107 107 110 111 113 115 119 119 111 104 94 86 88 88 89 93 95 96 86 80 64 67 69 67 53 50 51 48 44 43
116 115 116 119 116 113 113 113 110 110 107 99 106 109 107 112 109 104 104 99 98 97 89 98 98 97 93 79 68 72 70 70 61 58 56 54 50 49
116 112 112 113 114 110 110 109 110 112 110 107 107 106 95 89 91 92 94 97 100 97 95 94 93 91 89 81 74 73 74 74 68 63 62 59 55 53
115 112 115 114 113 108 105 106 105 104 105 105 107 108 106 104 97 93 102 97 101 103 106 99 96 86 85 84 78 77 80 81 75 68 66 64 60 57
110 117 116 115 110 109 106 101 102 95 90 86 96 107 112 112 114 113 112 114 108 102 107 98 95 83 74 87 85 85 88 89 83 75 71 70 65 63
105 101 116 115 113 105 105 97 95 81 80 75 75 80 88 109 116 112 110 108 114 116 112 97 98 90 85 49 77 92 96 97 95 83 78 77 71 69
66 66 46 48 99 110 102 99 96 87 86 85 80 79 85 92 93 95 97 98 104 108 104 104 102 91 90 92 77 76 98 105 97 89 85 79 79 74
78 99 134 123 93 98 101 91 91 100 88 87 86 87 88 86 85 89 93 95 102 105 106 97 88 84 84 92 96 85 85 106 104 96 89 80 79 79
67 63 68 84 92 96 79 83 93 75 78 82 84 83 91 81 84 90 95 97 103 106 103 94 88 83 85 86 88 87 86 81 98 105 89 84 85 80
30 33 53 58 93 76 62 59 77 66 71 74 77 80 77 78 89 89 90 95 104 108 107 100 93 84 83 87 86 86 84 80 77 93 96 90 83 83
14 28 45 49 60 85 111 97 101 76 71 72 78 82 79 82 85 93 93 97 102 106 109 107 103 89 85 89 85 84 85 84 80 68 79 82 84 85
21 19 20 23 37 41 45 65 75 75 74 71 84 87 85 91 90 91 93 96 102 106 110 112 110 112 104 96 102 94 91 92 79 73 73 66 74 75
31 26 24 24 26 33 44 52 49 57 61 70 73 80 86 90 94 95 94 97 102 103 105 107 110 121 126 111 75 90 78 78 79 82 72 61 65 69
31 30 29 27 27 30 32 39 45 49 57 63 66 75 80 84 92 95 95 96 99 98 100 103 104 96 90 70 58 63 76 68 69 82 75 67 65 64
39 36 32 27 28 30 31 35 42 45 49 53 60 67 75 80 84 88 90 91 92 91 92 88 88 85 86 81 76 60 65 61 56 58 58 55 62 63
45 44 44 40 34 32 31 32 34 39 42 46 51 55 61 67 70 75 75 76 78 79 87 81 73 70 80 80 75 63 66 68 71 64 54 50 48 41
Wind_Direction_500mb
232 233 232 232 233 237 239 242 244 245 248 255 256 260 259 264 268 264 260 260 257 258 261 263 266 268 266 258 255 250 246 254 265 275 280 291 298 295
234 234 235 235 236 237 239 242 245 248 255 261 261 265 265 264 262 257 258 262 257 255 258 262 264 267 263 254 252 245 236 239 253 266 278 284 289 285
237 236 237 237 238 238 239 243 244 246 248 256 260 261 262 260 258 256 253 256 254 252 254 259 263 266 266 253 250 247 237 223 233 248 264 276 276 273
239 239 240 238 239 241 241 242 245 245 246 251 256 259 259 260 259 255 254 253 251 249 253 256 260 263 263 261 253 252 264 238 229 236 257 264 262 261
241 241 242 241 241 241 241 243 243 246 248 246 251 255 258 257 256 252 251 251 249 247 251 256 259 262 263 262 255 258 260 239 225 236 251 255 253 248
246 244 244 244 245 244 244 244 245 245 246 246 248 252 254 255 252 249 245 246 247 248 246 253 256 260 261 259 257 253 250 231 226 230 245 249 245 237
246 246 245 247 249 249 246 246 246 246 246 247 247 248 250 249 250 250 245 245 247 248 250 251 251 253 254 256 256 247 243 227 228 228 236 239 237 230
242 246 248 248 249 251 253 253 250 248 247 249 249 247 251 253 253 253 248 238 237 252 250 250 249 252 255 254 254 249 238 227 230 227 228 233 231 229
243 242 246 249 249 248 249 251 252 254 254 252 255 255 253 254 255 257 255 254 255 257 253 246 248 251 252 251 249 247 237 229 232 226 224 230 229 229
249 245 244 248 250 249 249 248 249 249 250 252 254 261 264 266 263 265 262 255 249 251 250 248 254 250 252 249 246 244 233 228 230 228 226 226 227 229
249 252 251 252 255 256 255 254 256 251 252 252 253 257 262 263 261 257 251 249 244 250 249 245 248 246 246 246 245 239 231 227 229 228 226 227 227 227
251 248 252 255 256 255 255 255 256 257 255 252 250 251 252 256 258 257 254 252 246 247 248 239 242 239 234 243 240 234 229 226 229 226 223 225 226 229
245 244 247 253 253 258 257 254 254 258 258 254 252 250 250 252 255 258 258 259 258 257 262 250 245 238 232 234 238 233 229 227 226 222 222 224 226 230
251 230 257 267 256 259 256 257 255 253 255 255 252 249 246 246 251 258 264 264 264 259 260 257 252 242 235 232 235 231 227 229 226 225 223 220 227 227
256 257 253 272 284 256 261 260 255 251 251 254 258 258 254 254 258 256 255 253 253 254 253 250 250 248 240 239 235 232 226 227 222 220 222 219 228 228
249 250 244 242 254 251 257 261 248 252 257 258 258 262 260 254 259 260 249 249 244 246 246 246 246 243 240 238 238 234 232 221 224 220 218 215 222 228
290 247 241 241 241 255 249 257 263 261 254 260 263 258 262 261 254 257 249 248 245 243 243 240 239 238 240 241 234 233 231 225 223 216 214 217 225 225
333 270 247 246 244 244 252 258 254 259 252 259 260 259 261 262 260 257 247 247 247 245 243 240 236 228 228 234 235 235 226 222 205 209 214 223 227 223
9 352 329 287 268 252 243 236 237 242 246 253 256 255 257 257 257 256 251 248 245 243 244 243 237 232 223 220 228 224 222 211 209 211 208 215 219 223
340 351 350 343 314 281 264 260 256 254 254 252 251 255 256 255 254 252 250 250 247 245 242 243 241 238 233 226 211 218 210 214 213 206 200 208 216 227
310 320 329 329 333 332 309 283 271 258 251 253 256 255 256 255 254 254 252 252 249 244 242 243 242 236 226 222 216 207 200 207 218 208 200 202 213 217
298 295 300 307 314 318 329 318 294 279 271 264 259 257 256 256 255 254 252 249 249 248 246 241 234 227 219 216 206 204 199 197 204 211 204 210 213 214
297 294 288 292 297 304 310 315 319 299 286 277 266 262 259 258 256 255 255 255 252 246 238 229 224 214 207 210 221 209 198 195 200 195 196 205 210 209
Wind_Speed_850mb
106 102 102 103 110 105 99 95 85 75 82 81 76 69 63 61 60 61 63 63 71 76 71 71 71 72 65 51 44 40 37 30 28 27 26 24 26 24
115 109 107 106 104 107 113 106 99 95 99 83 79 78 72 69 69 69 72 66 70 78 79 77 75 76 70 58 55 50 41 32 25 30 27 27 27 24
122 120 114 109 108 106 107 110 110 105 105 100 96 86 79 76 75 73 78 75 72 79 85 83 81 80 76 71 64 60 45 33 41 29 29 27 29 25
130 127 124 117 114 110 108 113 113 111 106 108 103 100 96 86 85 80 81 79 77 81 85 87 87 84 85 81 77 48 46 50 40 29 31 32 29 26
125 134 131 124 120 117 117 114 114 118 113 106 108 104 101 93 92 87 83 81 79 76 84 89 88 90 89 85 68 54 59 54 39 31 33 35 31 27
123 129 132 133 126 121 118 116 114 116 120 117 106 105 103 98 91 90 88 86 76 77 81 87 89 92 92 78 65 60 66 54 45 36 37 37 33 32
121 124 127 129 127 124 117 114 112 113 115 115 116 116 114 108 109 100 90 81 77 78 80 88 92 94 89 79 61 67 66 62 53 41 42 41 39 37
116 120 121 122 120 119 119 110 107 107 110 111 113 115 119 119 111 104 94 86 88 88 89 93 95 96 86 80 64 67 69 67 53 50 51 48 44 43
116 115 116 119 116 113 113 113 110 110 107 99 106 109 107 112 109 104 104 99 98 97 89 98 98 97 93 79 68 72 70 70 61 58 56 54 50 49
116 112 112 113 114 110 110 109 110 112 110 107 107 106 95 89 91 92 94 97 100 97 95 94 93 91 89 81 74 73 74 74 68 63 62 59 55 53
115 112 115 114 113 108 105 106 105 104 105 105 107 108 106 104 97 93 102 97 101 103 106 99 96 86 85 84 78 77 80 81 75 68 66 64 60 57
110 117 116 115 110 109 106 101 102 95 90 86 96 107 112 112 114 113 112 114 108 102 107 98 95 83 74 87 85 85 88 89 83 75 71 70 65 63
105 101 116 115 113 105 105 97 95 81 80 75 75 80 88 109 116 112 110 108 114 116 112 97 98 90 85 49 77 92 96 97 95 83 78 77 71 69
66 66 46 48 99 110 102 99 96 87 86 85 80 79 85 92 93 95 97 98 104 108 104 104 102 91 90 92 77 76 98 105 97 89 85 79 79 74
78 99 134 123 93 98 101 91 91 100 88 87 86 87 88 86 85 89 93 95 102 105 106 97 88 84 84 92 96 85 85 106 104 96 89 80 79 79
67 63 68 84 92 96 79 83 93 75 78 82 84 83 91 81 84 90 95 97 103 106 103 94 88 83 85 86 88 87 86 81 98 105 89 84 85 80
30 33 53 58 93 76 62 59 77 66 71 74 77 80 77 78 89 89 90 95 104 108 107 100 93 84 83 87 86 86 84 80 77 93 96 90 83 83
14 28 45 49 60 85 111 97 101 76 71 72 78 82 79 82 85 93 93 97 102 106 109 107 103 89 85 89 85 84 85 84 80 68 79 82 84 85
21 19 20 23 37 41 45 65 75 75 74 71 84 87 85 91 90 91 93 96 102 106 110 112 110 112 104 96 102 94 91 92 79 73 73 66 74 75
31 26 24 24 26 33 44 52 49 57 61 70 73 80 86 90 94 95 94 97 102 103 105 107 110 121 126 111 75 90 78 78 79 82 72 61 65 69
31 30 29 27 27 30 32 39 45 49 57 63 66 75 80 84 92 95 95 96 99 98 100 103 104 96 90 70 58 63 76 68 69 82 75 67 65 64
39 36 32 27 28 30 31 35 42 45 49 53 60 67 75 80 84 88 90 91 92 91 92 88 88 85 86 81 76 60 65 61 56 58 58 55 62 63
45 44 44 40 34 32 31 32 34 39 42 46 51 55 61 67 70 75 75 76 78 79 87 81 73 70 80 80 75 63 66 68 71 64 54 50 48 41
Wind_Direction_850mb
232 233 232 232 233 237 239 242 244 245 248 255 256 260 259 264 268 264 260 260 257 258 261 263 266 268 266 258 255 250 246 254 265 275 280 291 298 295
234 234 235 235 236 237 239 242 245 248 255 261 261 265 265 264 262 257 258 262 257 255 258 262 264 267 263 254 252 245 236 239 253 266 278 284 289 285
237 236 237 237 238 238 239 243 244 246 248 256 260 261 262 260 258 256 253 256 254 252 254 259 263 266 266 253 250 247 237 223 233 248 264 276 276 273
239 239 240 238 239 241 241 242 245 245 246 251 256 259 259 260 259 255 254 253 251 249 253 256 260 263 263 261 253 252 264 238 229 236 257 264 262 261
241 241 242 241 241 241 241 243 243 246 248 246 251 255 258 257 256 252 251 251 249 247 251 256 259 262 263 262 255 258 260 239 225 236 251 255 253 248
246 244 244 244 245 244 244 244 245 245 246 246 248 252 254 255 252 249 245 246 247 248 246 253 256 260 261 259 257 253 250 231 226 230 245 249 245 237
246 246 245 247 249 249 246 246 246 246 246 247 247 248 250 249 250 250 245 245 247 248 250 251 251 253 254 256 256 247 243 227 228 228 236 239 237 230
242 246 248 248 249 251 253 253 250 248 247 249 249 247 251 253 253 253 248 238 237 252 250 250 249 252 255 254 254 249 238 227 230 227 228 233 231 229
243 242 246 249 249 248 249 251 252 254 254 252 255 255 253 254 255 257 255 254 255 257 253 246 248 251 252 251 249 247 237 229 232 226 224 230 229 229
249 245 244 248 250 249 249 248 249 249 250 252 254 261 264 266 263 265 262 255 249 251 250 248 254 250 252 249 246 244 233 228 230 228 226 226 227 229
249 252 251 252 255 256 255 254 256 251 252 252 253 257 262 263 261 257 251 249 244 250 249 245 248 246 246 246 245 239 231 227 229 228 226 227 227 227
251 248 252 255 256 255 255 255 256 257 255 252 250 251 252 256 258 257 254 252 246 247 248 239 242 239 234 243 240 234 229 226 229 226 223 225 226 229
245 244 247 253 253 258 257 254 254 258 258 254 252 250 250 252 255 258 258 259 258 257 262 250 245 238 232 234 238 233 229 227 226 222 222 224 226 230
251 230 257 267 256 259 256 257 255 253 255 255 252 249 246 246 251 258 264 264 264 259 260 257 252 242 235 232 235 231 227 229 226 225 223 220 227 227
256 257 253 272 284 256 261 260 255 251 251 254 258 258 254 254 258 256 255 253 253 254 253 250 250 248 240 239 235 232 226 227 222 220 222 219 228 228
249 250 244 242 254 251 257 261 248 252 257 258 258 262 260 254 259 260 249 249 244 246 246 246 246 243 240 238 238 234 232 221 224 220 218 215 222 228
290 247 241 241 241 255 249 257 263 261 254 260 263 258 262 261 254 257 249 248 245 243 243 240 239 238 240 241 234 233 231 225 223 216 214 217 225 225
333 270 247 246 244 244 252 258 254 259 252 259 260 259 261 262 260 257 247 247 247 245 243 240 236 228 228 234 235 235 226 222 205 209 214 223 227 223
9 352 329 287 268 252 243 236 237 242 246 253 256 255 257 257 257 256 251 248 245 243 244 243 237 232 223 220 228 224 222 211 209 211 208 215 219 223
340 351 350 343 314 281 264 260 256 254 254 252 251 255 256 255 254 252 250 250 247 245 242 243 241 238 233 226 211 218 210 214 213 206 200 208 216 227
310 320 329 329 333 332 309 283 271 258 251 253 256 255 256 255 254 254 252 252 249 244 242 243 242 236 226 222 216 207 200 207 218 208 200 202 213 217
298 295 300 307 314 318 329 318 294 279 271 264 259 257 256 256 255 254 252 249 249 248 246 241 234 227 219 216 206 204 199 197 204 211 204 210 213 214
297 294 288 292 297 304 310 315 319 299 286 277 266 262 259 258 256 255 255 255 252 246 238 229 224 214 207 210 221 209 198 195 200 195 196 205 210 209